FENGYUN 1C DEB, 30621

Orbit data source: Space-Track

FENGYUN 1C DEB, 30621 is space debris in SSO originally from a launch on Mon, 10 May 1999 UTC launched from the Taiyaun Space Center, China (TSC). Fengyun 1C debris stems from the Chinese weather satellite Fengyun-1C, which was intentionally destroyed by a Chinese anti-satellite missile in 2007. This event dramatically increased the amount of space debris, with thousands of trackable fragments posing hazards to satellites and human spaceflight. The Fengyun 1C debris cloud has become a focal point in discussions about space sustainability and the need for international regulations to prevent the creation of new debris.

Loading next visibility...
Identifier
30621, 1999-025ANC
Orbit
SSO
Country
Flag of CNCN / PRC
Related business
Manufacturer
Unknown
Mission
Spacecraft
Bus & Motor
Unknown
Mass
Unknown
Launch date (UTC)
1999-05-10 (27 years ago)
Launch vehicle
Unknown
Launch site
Taiyaun Space Center, China (TSC)
Object type
Payload
Rocket body
Debris
Shape & HBR
Unknown shape, 0.1 m
Radar Cross Section
Medium (>0.1 m² and <1 m²)

Expand to show TLE details & history
Last TLE update: 17 hours ago

TLE from 17 hours ago
0 FENGYUN 1C DEB
1 30621U 99025ANC 26149.80502171  .00002192  00000-0  12855-2 0  9990
2 30621  98.7035  91.2579 0132412 192.5047 196.0342 14.04871085979491
Epoch: 2026-05-29T19:19Z
TLE epoch observation values (Epoch: 2026-05-29T19:19:13.875Z)
Latitude
27.81532°
Longitude
-90.48848°
Altitude
972.813 km
Speed
7.321 km/s
True Right ascension
05h 46m 35s
True Declination
27° 40' 40"
Sunlit
Object was in daylight at epoch
Visualization orbit readout
Latitude
Unknown
Longitude
Unknown
Altitude
Unknown
Speed
Unknown
Apparent Right ascension
Unknown
Apparent Declination
Unknown
Sunlit
N/A
Visualization observer readout
Local Sidereal Time
21:58:30
Azimuth
Unknown
Elevation
Unknown
Doppler factor
Unknown
Orbital elements
Apogee altitude
970.183 km
Perigee altitude
778.125 km
Semi-major axis
7,252.291 km
Eccentricity
0.01324
Inclination
98.7035°
RAAN
91.2579°
Arg. of periapsis
192.5047°
True anomaly
195.62167°
Mean anomaly
196.0342°
Eccentric anomaly
195.82728°
Mean motion
3.51423 °/min
Orbital period
102.44 mins
BSTAR
0.0012855
Loading maneuver chart data...
Computing Atmospheric mass density...
Loading historical data...
Loading historical data...
Loading historical data...
Loading historical data...
Loading historical data...
Loading historical data...
Loading historical data...

Documentation

Showing up to 5 results
|